Location: Central Falls
(41.8900°N, 71.3929°W)
Time: 03:17:47
(UTC+00:00)

Vanguard 2 - Pass Details

Date: 11 December 2023
Orbit: 554 x 2918 km, 32.9° (Epoch: 01 March)

Event Time Altitude Azimuth Distance (km) Brightness Sun altitude
Rises 20:54:57 0° 192° (SSW) 5,706 12.8 2.2°
Reaches altitude 10° 20:59:50 10° 178° (S) 5,057 12.2 1.5°
Maximum altitude 21:10:04 21° 136° (SE) 4,659 11.4 -0.1°
Drops below altitude 10° 21:21:27 10° 95° (E) 5,746 11.5 -2.0°
Sets 21:27:28 0° 82° (E) 6,689 11.7 -2.9°
